Regional Weather Roundup
Issued by NWS

Home | Current Version | Previous Version | Text Only | Print | Product List | Glossary On
Versions: 1 2 3 4 5 6 7 8 9 10 11 12 13 14 15 16 17 18 19 20 21 22 23 24 25 26 27 28 29 30 31 32 33 34 35 36 37 38 39 40 41 42 43 44 45 46 47 48 49 50
068
ASUS43 KFSD 141910
RWRSD

WEATHER ROUNDUP FOR SOUTH DAKOTA
NATIONAL WEATHER SERVICE SIOUX FALLS SD
100 PM CST SUN FEB 14 2016

NOTE: "FAIR" INDICATES FEW OR NO CLOUDS BELOW 12,000 FEET WITH NO
SIGNIFICANT WEATHER AND/OR OBSTRUCTIONS TO VISIBILITY.


SDZ001>005-009-010-012>017-142000-
NORTHWEST AND NORTH CENTRAL SOUTH DAKOTA

CITY           SKY/WX    TMP DP  RH WIND       PRES   REMARKS
BUFFALO          N/A     38  32  79 W22       29.71S
FAITH            N/A     37  27  67 W18       29.76S
MOBRIDGE       CLOUDY    37  30  75 W8        29.72S
$$

SDZ012>016-024>037-041>051-057-063-072>074-142000-
SOUTHWEST AND SOUTH CENTRAL SOUTH DAKOTA

CITY           SKY/WX    TMP DP  RH WIND       PRES   REMARKS
RAPID CTY ARPT CLOUDY    43  25  49 N14       29.79S
PIERRE         MOSUNNY   38  31  76 W9        29.76F
CUSTER         LGT SNOW  31  24  75 W10G28    29.78R WCI  22
ELLSWORTH AFB  LGT RAIN  41  28  57 NW15G21   29.79R
PHILIP         CLOUDY    43  31  62 NW10      29.79F
PINE RIDGE     PTSUNNY   42  25  50 VRB5      29.82F
SPEARFISH      HVY SNOW  36  32  87 W15G24    29.80F
WINNER         FAIR      43  30  60 W9        29.79F
$$

SDZ004>011-016>023-039-040-142000-
NORTHEAST SOUTH DAKOTA

CITY           SKY/WX    TMP DP  RH WIND       PRES   REMARKS
ABERDEEN       CLOUDY    22  16  78 SW14      29.78S WCI   9
WATERTOWN      CLOUDY    18  12  77 S10       29.76F WCI   6
BROOKINGS      FLURRIES  20  14  77 S12       29.78F WCI   8
SISSETON         N/A     18  13  80 S14       29.79F WCI   4
$$

SDZ017-020-022-023-036>040-048>070-142000-
SOUTHEAST SOUTH DAKOTA

CITY           SKY/WX    TMP DP  RH WIND       PRES   REMARKS
SIOUX FALLS    CLOUDY    20  14  77 SW8       29.82S WCI  10
HURON          CLOUDY    22  17  81 S6        29.80F WCI  14
CHAMBERLAIN    CLOUDY    37  32  81 NW6       29.78F
MITCHELL       CLOUDY    23  19  85 SW8       29.82F WCI  14
YANKTON        CLOUDY    23  18  80 W6        29.83F WCI  16
$$

ABBREVIATIONS USED IN REMARKS
   TC - TEMPERATURE IN CELSIUS
  WCI - WIND CHILL INDEX
   HX - HEAT INDEX
  VSB - VISIBILITY





USA.gov is the U.S. government's official web portal to all federal, state and local government web resources and services.